Regional Weather Roundup
Issued by NWS Newport/Morehead, NC

Current Version | Previous Version | Graphics & Text | Print | Product List | Glossary On
Versions: 1 2 3 4 5 6 7 8 9 10 11 12 13 14 15 16 17 18 19 20 21 22 23 24 25 26 27 28 29 30 31 32 33 34 35 36 37 38 39 40 41 42 43 44 45 46 47 48 49 50
167 ASUS42 KMHX 281313 RWRMHX WEATHER ROUNDUP FOR EASTERN NORTH CAROLINA NATIONAL WEATHER SERVICE NEWPORT/MOREHEAD CITY NC 900 AM EDT THU JUL 28 2016 NOTE: "FAIR" INDICATES FEW OR NO CLOUDS BELOW 12,000 FEET WITH NO SIGNIFICANT WEATHER AND/OR OBSTRUCTIONS TO VISIBILITY NCZ015>017-031-032-045>047-102-103-281400- NORTH COAST CITY SKY/WX TMP DP RH WIND PRES REMARKS EDENTON MOSUNNY 84 76 76 CALM 29.94S ELIZABETH CITY SUNNY 84 76 76 SW6 29.93S KITTY HAWK MOSUNNY 86 76 73 CALM 29.94R MANTEO N/A 82 77 85 W5 29.95S $$ NCZ045>047-081-094-103-104-281400- CENTRAL COAST CITY SKY/WX TMP DP RH WIND PRES REMARKS FRISCO MOSUNNY 84 80 88 SW6 29.95S $$ NCZ095-097-098-100-101-281400- SOUTHERN COAST CITY SKY/WX TMP DP RH WIND PRES REMARKS BEAUFORT SUNNY 84 80 88 SW9 N/A CEDAR ISLAND NOT AVBL JACKSONVILLE MOSUNNY 86 75 69 W9 29.95R PINEY ISLAND NOT AVBL WILMINGTON SUNNY 87 76 69 W8 29.97R $$ NCZ011>013-027>030-043-044-078>080-089-090>093-098-281400- COASTAL PLAIN CITY SKY/WX TMP DP RH WIND PRES REMARKS AHOSKIE SUNNY 80 75 85 CALM 29.94R CLINTON SUNNY 84 76 76 SW6 29.97R ELIZABETHTOWN SUNNY 84 74 70 W8 29.97R GOLDSBORO SUNNY 87 79 76 W8 29.94R HX 100 GREENVILLE SUNNY 86 79 79 CALM 29.96S HAVELOCK SUNNY 86 77 74 SW6 29.96R KENANSVILLE NOT AVBL KINSTON SUNNY 86 75 70 SW7 29.96R NEW BERN SUNNY 85 77 77 W6 29.96R RICHLANDS SUNNY 87 78 74 SW6 29.97R HX 100 ROCKY MOUNT SUNNY 82 78 88 SW5 29.94S WASHINGTON SUNNY 83 77 81 W5 29.94S WHITEVILLE SUNNY 84 74 71 W5 29.98R $$ AMZ130-135-150-152-154-156-158-170-250-252-270-ANZ085-086-088-633-658-670-281400- MARINE OBSERVATIONS STATION/POSITION TIME TEMP WIND PRES WAVE SWELL AIR SEA DIR/SP/G HT/PER HT/PER (UTC) (F) (DEG/KT/KT) (MB) (FT/S) (FT/S) CHESAPEAKE LIGHT NOT AVBL 64 E VA BEACH 1250 82 81 CALM / 2 1013.4 2/ 6 2/ 6 DUCK 1200 83 75 260/ 6/ 8 1013.1 2 E DUCK 1211 77 N/A 1/ 8 OREGON INLET 1200 82 84 200/ 2/ 3 1014.0 13E OREGON INLT 1300 80 N/A 2/ 6 2/ 6 HATTERAS CG 1200 83 83 190/ 3/ 6 1013.9 DIAMOND BUOY 1250 84 83 220/ 10/ 10 1014.3 2/ 6 2/ 6 CAPE LOOKOUT 1300 85 250/ 9/ 11 1014.2 BEAUFORT LAB 1200 84 82 220/ 4/ 9 1013.4 30 SE NEW RVR IN 1208 85 84 250/ 14/ 17 1014.4 30 SE NEW RVR IN 1225 84 N/A 4/ 6 27 SE WRIGHTSVLE 1208 85 84 240/ 12/ 16 1014.8 5 SE WRIGHTSVLE 1208 82 80 270/ 8/ 12 1015.3 225 S CAPE HAT 1250 84 84 280/ 8/ 10 1017.2 3/ 6 3/ 6 41 SE CHARLESTON 1250 86 86 260/ 14/ 16 1016.0 4/ 5 2/ 8 $$

USA.gov is the U.S. government's official web portal to all federal, state and local government web resources and services.